Hourly Data Report for October 01, 2017

All times are specified in Local Standard Time (LST). Add 1 hour to adjust for Daylight Saving Time where and when it is observed.

RAE LAKES
NORTHWEST TERRITORIES

64°06'42.078" N
117°19'40.086" W
223.20 m
2203359
71165
WYH

Download Data

Hourly Data (October 2017)
Hourly Data Report for October 1, 2017
Temp Definition
°C
Dew Point Temp Definition
°C
Rel Hum Definition
%
Wind Dir Definition
10's deg

Wind Spd Definition
km/h
Visibility Definition
km
Stn Press Definition
kPa
Hmdx Definition


Wind Chill Definition


Weather Definition


TIME
00:00 3.2 2.5 95 35 28   98.32     LegendNANA
01:00 3.2 2.4 94 34 32   98.35     LegendNANA
02:00 3.2 2.1 93 34 34   98.42     LegendNANA
03:00 3.3 2.2 92 34 33   98.53     LegendNANA
04:00 3.6 2.3 92 34 29   98.59     LegendNANA
05:00 3.4 2.0 91 34 31   98.68     LegendNANA
06:00 3.3 1.5 88 33 25   98.75     LegendNANA
07:00 3.0 1.4 89 32 27   98.86     LegendNANA
08:00 2.5 1.1 90 31 24   98.96     LegendNANA
09:00 3.0 0.7 85 33 26   99.05     LegendNANA
10:00 3.3 0.2 80 33 26   99.13     LegendNANA
11:00 3.7 0.2 78 32 25   99.19     LegendNANA
12:00 4.1 -0.1 74 32 23   99.25     LegendNANA
13:00 4.1 0.2 76 31 20   99.34     LegendNANA
14:00 4.4 -1.4 66 33 23   99.42     LegendNANA
15:00 3.9 -1.9 66 32 24   99.51     LegendNANA
16:00 3.9 -3.3 59 30 20   99.60     LegendNANA
17:00 3.9 -3.3 59 33 18   99.66     LegendNANA
18:00 3.5 -4.6 55 32 20   99.73     LegendNANA
19:00 2.8 -4.4 59 31 10   99.80     LegendNANA
20:00 1.6 -4.0 67 27 6   99.84     LegendNANA
21:00 1.3 -3.5 70 25 7   99.86     LegendNANA
22:00 1.6 -3.4 69 27 9   99.85     LegendNANA
23:00 2.5 -2.2 71 27 12   99.87     LegendNANA

Notes on Data Quality.

Legend

  • E = Estimated
  • M = Missing
  • NA = Not Available
  • ‡ = Partner data that is not subject to review by the National Climate Archives
Date modified: